This demonstration page uses our WeatherBlox Daily Observations layout. Learn more.

Left ArrowRight Arrow

38.89511, -77.03637

Hourly Observations for October 18, 2021

Temp ( °F °C ) Dew Point ( °F °C ) Humidity (%) Winds ( mph kmh ) Pressure ( in mb ) Visibility ( mi km ) Precip ( " mm )
12:52 am 00:52 Mostly Clear 52 11.1 39 3.9 61 61 WSW 6 9 30.02 1017 10 16 N/A
1:52 am 01:52 Mostly Clear 51 10.6 40 4.4 66 66 SW 3 6 30.01 1016 10 16 N/A
2:52 am 02:52 Mostly Clear 50 10 41 5 71 71 S 7 11 30.00 1016 10 16 N/A
3:52 am 03:52 Clear 50 10 40 4.4 68 68 SW 7 11 29.99 1016 10 16 N/A
4:52 am 04:52 Clear 49 9.4 40 4.4 71 71 SW 6 9 29.99 1016 10 16 N/A
5:52 am 05:52 Clear 48 8.9 40 4.4 74 74 SSW 8 13 30.00 1016 10 16 N/A
6:52 am 06:52 Mostly Clear 51 10.6 38 3.3 61 61 SW 9 15 30.00 1016 10 16 N/A
7:52 am 07:52 Sunny 52 11.1 39 3.9 61 61 W 10 17 30.01 1016 10 16 N/A
8:52 am 08:52 Sunny 56 13.3 39 3.9 53 53 W 12 19 30.03 1017 10 16 N/A
9:52 am 09:52 Mostly Sunny 60 15.6 40 4.4 47 47 W 10 17 30.03 1017 10 16 N/A
10:52 am 10:52 Mostly Sunny 63 17.2 39 3.9 41 41 W 13 20 30.03 1017 10 16 N/A
11:52 am 11:52 Partly Cloudy 64 17.8 38 3.3 38 38 NW 18 30 30.01 1016 10 16 N/A
12:52 pm 12:52 Partly Cloudy 66 18.9 39 3.9 37 37 NNW 21 33 29.99 1016 10 16 N/A
1:52 pm 13:52 Partly Cloudy 68 20 39 3.9 35 35 W 16 26 29.96 1015 10 16 N/A
2:52 pm 14:52 Partly Cloudy 69 20.6 38 3.3 32 32 NW 16 26 29.94 1014 10 16 N/A
3:52 pm 15:52 Mostly Sunny 69 20.6 36 2.2 30 30 WNW 10 17 29.93 1014 10 16 N/A
4:52 pm 16:52 Mostly Sunny 68 20 37 2.8 32 32 NNW 16 26 29.96 1015 10 16 N/A
5:52 pm 17:52 Mostly Sunny 66 18.9 35 1.7 32 32 NNW 14 22 29.98 1015 10 16 N/A
6:52 pm 18:52 Mostly Clear 62 16.7 37 2.8 40 40 NNW 7 11 30.00 1016 10 16 N/A
7:52 pm 19:52 Mostly Clear 61 16.1 38 3.3 43 43 N 8 13 30.02 1017 10 16 N/A
8:52 pm 20:52 Mostly Clear 60 15.6 39 3.9 46 46 N 5 7 30.05 1018 10 16 N/A
9:52 pm 21:52 Mostly Clear 59 15 37 2.8 44 44 NW 6 9 30.06 1018 10 16 N/A
10:52 pm 22:52 Clear 56 13.3 39 3.9 53 53 N N/A 30.08 1019 10 16 N/A
11:52 pm 23:52 Clear 53 11.7 42 5.6 66 66 N N/A 30.10 1019 10 16 N/A

Powered by AerisWeather